This demonstration page uses our WeatherBlox Daily Observations layout. Learn more.

Left ArrowRight Arrow

38.89511, -77.03637

Hourly Observations for March 10, 2021

Temp ( °F °C ) Dew Point ( °F °C ) Humidity (%) Winds ( mph kmh ) Pressure ( in mb ) Visibility ( mi km ) Precip ( " mm )
12:52 am 00:52 Mostly Cloudy 48 8.9 39 3.9 71 71 Calm 30.39 1029 10 16.0934 0 0
1:52 am 01:52 Cloudy 46 7.8 38 3.3 73 73 N 7 11 30.4 1030 10 16.0934 0 0
2:52 am 02:52 Mostly Cloudy 45 7.2 35 1.7 68 68 N 6 9 30.4 1029 10 16.0934 0 0
3:52 am 03:52 Mostly Cloudy 45 7.2 35 1.7 68 68 NE 8 13 30.41 1030 10 16.0934 0 0
4:52 am 04:52 Mostly Cloudy 46 7.8 36 2.2 68 68 NNE 6 9 30.42 1030 10 16.0934 0 0
5:52 am 05:52 Mostly Cloudy 46 7.8 36 2.2 68 68 NE 6 9 30.44 1031 10 16.0934 0 0
6:52 am 06:52 Mostly Cloudy 45 7.2 34 1.1 66 66 NNE 6 9 30.45 1031 10 16.0934 0 0
7:52 am 07:52 Partly Cloudy 49 9.4 35 1.7 59 59 NE 6 9 30.47 1032 10 16.0934 0 0
8:52 am 08:52 Mostly Sunny 52 11.1 35 1.7 53 53 NE 7 11 30.48 1032 10 16.0934 0 0
9:52 am 09:52 Mostly Sunny 57 13.9 35 1.7 44 44 NNE 7 11 30.48 1032 10 16.0934 0 0
10:52 am 10:52 Mostly Sunny 60 15.6 35 1.7 39 39 NNE 3 6 30.48 1032 10 16.0934 0 0
11:52 am 11:52 Mostly Sunny 65 18.3 35 1.7 33 33 Calm 30.46 1031 10 16.0934 0 0
12:52 pm 12:52 Partly Cloudy 68 20 36 2.2 31 31 NW 5 7 30.42 1030 10 16.0934 0 0
1:52 pm 13:52 Mostly Sunny 69 20.6 34 1.1 27 27 ESE 3 6 30.38 1029 10 16.0934 0 0
2:52 pm 14:52 Mostly Sunny 72 22.2 29 -1.7 20 20 S 8 13 30.36 1028 10 16.0934 0 0
3:52 pm 15:52 Mostly Sunny 70 21.1 30 -1.1 23 23 S 9 15 30.35 1028 10 16.0934 0 0
4:52 pm 16:52 Mostly Cloudy 68 20 32 0 26 26 S 8 13 30.33 1027 10 16.0934 0 0
5:52 pm 17:52 Mostly Cloudy 65 18.3 35 1.7 33 33 SE 12 19 30.33 1027 10 16.0934 0 0
6:52 pm 18:52 Clear 63 17.2 33 0.6 33 33 S 3 6 30.35 1028 10 16.0934 0 0
7:52 pm 19:52 Mostly Cloudy 60 15.6 34 1.1 38 38 S 6 9 30.34 1028 10 16.0934 0 0
8:52 pm 20:52 Partly Cloudy 56 13.3 35 1.7 46 46 S 7 11 30.34 1027 10 16.0934 0 0
9:52 pm 21:52 Partly Cloudy 57 13.9 35 1.7 44 44 S 7 11 30.34 1027 10 16.0934 0 0
10:52 pm 22:52 Partly Cloudy 53 11.7 39 3.9 59 59 S 12 19 30.32 1027 10 16.0934 0 0
11:52 pm 23:52 Partly Cloudy 54 12.2 38 3.3 55 55 S 12 19 30.31 1026 10 16.0934 0 0

Powered by AerisWeather